Back to catalog

STARLINK-32557

AliveCommunicationsVLEO
NORAD 62127·PAYLOAD·🇺🇸 United States

Launched Nov 27, 2024 from Cape Canaveral Space Force Station

Loading…

Next Passes (next 24 hours)

TLE

FreshSource: CelesTrak SupGP

Epoch: Sep 14, 2026, 14:05 UTC

1 62127C 24222P   26257.58729167  .00036538  00000+0  13234-2 0  2573
2 62127  42.9998 138.7831 0001481 265.6439 296.4990 15.27560912    19

Track STARLINK-32557 in real time with AllMySat

Download on the App Store